Location: ?????????
(54.7630°N, 39.4991°E)
Time: 07:40:56
(UTC+00:00)

NOSS 3-4 (C) - Pass Details

Date: 14 April 2026
Orbit: 773 x 1438 km, 63.4° (Epoch: 26 December)

Event Time Altitude Azimuth Distance (km) Brightness Sun altitude
Rises 18:05:14 0° 198° (SSW) 3,246 6.0 -13.6°
Reaches altitude 10° 18:07:41 10° 191° (S) 2,345 5.2 -13.9°
Maximum altitude 18:12:36 39° 123° (ESE) 1,227 3.6 -14.4°
Drops below altitude 10° 18:18:01 10° 56° (ENE) 2,595 5.6 -15.0°
Sets 18:20:51 0° 50° (NE) 3,636 6.4 -15.3°
